Temp_Advection
nan nan nan nan nan nan nan nan nan nan nan nan nan nan nan nan nan nan nan nan nan nan nan nan nan nan nan nan nan nan nan nan nan nan nan nan nan nan nan nan nan nan nan nan
nan -1 -3 -0 1 -0 -1 -0 -0 -1 -2 0 0 -0 -1 -0 0 0 0 0 1 0 0 -0 -0 -0 -0 -0 -0 -1 -1 -1 -1 -1 -1 -1 -1 -1 -1 1 1 1 0 nan
nan -0 0 1 2 0 -1 -2 -0 0 -3 -2 0 -1 -1 -0 1 1 0 1 0 0 0 -0 -0 -0 -0 -0 -0 -0 -1 -1 -0 -0 -1 -1 -1 -3 -1 0 0 1 0 nan
nan 0 2 1 1 0 -1 -3 -0 -1 -1 -1 -0 -0 -2 0 0 0 0 0 0 0 -0 -0 -0 -0 -0 0 0 -0 -1 -1 -0 -0 -0 -1 -2 -3 -1 -1 0 1 0 nan
nan 1 1 -0 -0 0 -0 -0 -0 -1 -1 -1 0 -1 -1 1 0 0 0 -0 -0 -0 -0 -0 -0 -0 -0 -0 0 -0 -0 -1 -1 -1 -1 0 -1 -2 -3 -2 -1 1 1 nan
nan -0 -1 -1 1 1 0 -1 -1 -1 1 1 -1 -2 -0 1 -0 -0 -0 -1 -0 -0 -0 -0 -0 -0 -0 -0 -0 -0 -0 -1 -1 -1 -0 -0 -0 -1 -2 -2 -1 0 1 nan
nan 0 -0 0 1 0 1 0 -0 0 0 -1 -1 0 0 0 0 1 -0 -1 -0 -0 -0 -0 -0 -0 -1 -1 -0 -0 -1 -1 -1 -1 -0 -0 -1 -1 -1 -2 -3 0 1 nan
nan -0 -2 -1 -1 -1 -0 -1 -0 -0 -0 -1 -1 0 0 -0 -1 -1 -1 -0 -0 -0 -0 -0 -1 -1 -1 -1 -0 -0 -1 -1 -0 -1 -0 -0 -1 -1 -1 -3 -3 -0 -0 nan
nan -1 -1 -1 -1 -0 -0 -2 -1 -0 -0 0 -0 0 -0 0 0 0 -0 -0 -0 -0 -0 -0 -0 -0 -0 -0 -0 -0 -1 -2 -1 -1 -1 -0 -0 -0 -1 -2 -1 -0 -0 nan
nan -0 -0 0 0 0 -1 0 1 0 -0 -1 -0 0 0 0 0 0 -0 -0 -0 -1 -0 -0 -0 -0 -0 -0 -0 -0 -1 -1 -1 0 -1 -1 -0 -0 -0 -0 -0 -0 0 nan
nan 0 0 0 0 -0 0 0 -0 0 -0 -0 -0 -0 -0 0 0 -0 -0 -1 -0 -1 -1 -0 -0 -0 -0 -0 -0 -0 -1 -1 -2 -1 -1 -1 -1 -0 -0 -0 -0 0 0 nan
nan 0 -0 0 0 -0 -0 0 0 0 -0 -0 -0 -0 0 0 -0 -0 -0 -0 -0 -0 -0 -1 -0 -0 -0 -1 -1 -0 -0 -0 -2 -2 -1 -1 -1 -1 -1 -0 0 -0 -0 nan
nan 0 -0 0 0 -0 0 0 0 0 0 0 -0 0 0 0 -0 -0 0 -1 -0 -0 -1 -1 -1 -1 -1 -1 -1 -1 -1 -1 -0 -1 -2 -1 -1 -1 -1 -0 0 0 0 nan
nan -0 0 0 -0 -0 0 0 0 0 -0 -1 -0 0 -0 -0 -0 -1 -2 -1 -1 -1 -1 -1 -1 -1 -1 -1 -1 -1 -1 -1 -1 -1 -1 -2 -2 -2 -1 -0 -0 0 0 nan
nan 0 -0 -0 -0 -0 -0 0 0 0 0 -0 -0 -0 -0 -1 -1 -1 -1 -1 -1 -1 -1 -1 -1 -1 -1 -1 -1 -1 -1 -1 -1 -1 -1 -2 -1 -1 -1 -0 -1 -0 1 nan
nan 0 0 0 0 0 -0 -0 0 -0 -0 -0 -0 0 -1 -1 -2 -1 -1 -1 -1 -1 -1 -1 -1 -1 -1 -1 -1 -1 -0 -0 0 -0 -1 -1 -0 -0 -1 -1 0 -0 0 nan
nan 0 0 -0 0 -0 -0 -0 -0 -0 0 0 0 -1 -1 -2 -2 -1 -1 -1 -1 -1 -1 -1 -1 -1 -0 -0 -0 -0 -0 0 1 -0 -1 -0 -0 -1 -1 -1 -0 -1 -1 nan
nan -0 0 0 0 0 0 -0 -0 -1 -1 -1 -1 -1 -1 -1 -1 -1 -1 -1 -1 -1 -1 -0 -0 -0 -0 -0 -0 -0 0 1 0 -1 -1 -1 -1 -1 -1 -0 -1 -1 -0 nan
nan -0 0 0 -0 -0 0 -1 -0 -0 -0 -0 -1 -1 -0 -0 -1 -1 -1 -1 -0 -0 -0 -0 -0 -0 -0 -0 -0 0 1 0 -1 -1 -1 -1 -0 -0 -1 -1 -0 -0 -0 nan
nan -0 0 -0 0 0 -0 0 -0 -0 0 -0 -1 -1 -0 0 0 -1 -1 -0 -0 -0 -0 -0 -0 -0 -0 -0 0 0 0 -1 -1 -0 -0 -0 -0 -0 -1 -0 -0 -0 -1 nan
nan 0 -0 -0 0 -0 0 -0 -0 0 -1 -1 -1 -1 -0 0 -1 -1 -0 -0 -0 -0 -0 -0 -0 -0 -0 -0 -0 -0 -0 -0 0 0 0 -0 -0 -0 -0 0 -0 -0 0 nan
nan 0 0 0 0 0 -1 0 0 -0 -0 -0 -0 -0 -0 -0 -0 -0 -0 -0 0 -0 -0 -0 -0 -0 -0 -0 -0 -0 -0 0 0 -0 -0 -0 -0 -0 0 0 -0 0 -0 nan
nan -0 -0 -0 -0 -0 -1 -1 -0 -0 -0 -0 -0 -0 -0 -0 -0 -0 -0 -0 -0 0 -0 -0 -0 -0 -0 -0 -0 -0 0 0 -0 -1 -1 -0 -0 -0 -0 -0 0 -1 -1 nan
nan -0 -0 0 -0 -0 -0 -0 -0 -0 -0 -0 -0 -0 -0 -0 -0 -0 -0 -0 -0 -0 -0 -0 -0 -0 -0 -0 -0 -0 -0 -0 -0 -0 -0 -0 -1 -1 -1 -1 -1 -1 -1 nan
nan 0 -1 -0 -0 -0 -0 -0 -0 -0 -0 -0 -0 -0 -0 -0 -0 -0 -0 -0 -0 -0 -0 -0 -0 -0 -1 -0 0 -0 -0 -0 -0 -0 -0 -0 -0 -0 -1 -1 -1 -1 -1 nan
nan nan nan nan nan nan nan nan nan nan nan nan nan nan nan nan nan nan nan nan nan nan nan nan nan nan nan nan nan nan nan nan nan nan nan nan nan nan nan nan nan nan nan nan
Wind_Speed
20 16 23 25 27 29 27 25 30 25 17 14 16 20 17 17 21 20 17 17 12 10 4 2 2 5 7 10 13 15 17 17 17 18 18 20 22 27 32 35 35 35 33 33
17 20 29 23 22 19 27 28 28 24 22 12 18 22 20 20 19 19 18 14 11 8 6 1 4 8 10 12 13 15 16 18 18 19 20 21 23 27 29 34 34 37 36 35
25 25 12 21 17 18 23 27 24 22 25 22 19 24 21 19 19 19 10 13 11 7 2 3 8 10 12 14 15 16 17 19 20 21 22 23 24 29 35 27 34 33 36 43
19 22 23 11 17 21 20 24 21 25 21 17 22 17 19 23 10 11 15 15 13 6 2 6 10 13 15 16 17 18 19 20 19 20 22 22 25 28 29 35 31 34 39 39
15 15 21 28 28 12 19 18 23 27 22 21 19 10 13 18 18 17 16 15 10 4 4 8 11 14 15 17 19 21 21 21 20 21 24 28 27 27 28 36 33 34 36 40
16 4 9 25 17 15 12 13 18 20 18 16 21 18 13 13 17 19 17 14 6 3 6 9 11 14 15 17 19 21 22 23 22 24 25 28 29 30 29 32 33 34 37 39
13 17 6 9 15 20 18 8 4 5 8 11 15 12 19 5 8 18 17 14 4 5 8 10 13 15 17 19 21 22 23 26 26 27 26 25 27 29 33 34 38 34 35 38
10 7 19 20 19 12 26 19 6 5 5 8 12 6 7 9 18 16 14 9 4 7 9 11 15 17 20 22 24 25 27 29 29 29 26 23 24 29 34 36 39 31 33 34
5 9 14 12 17 20 10 21 24 15 16 10 7 10 10 9 9 10 10 5 7 9 11 14 15 18 20 23 24 26 29 30 29 30 28 22 17 20 27 26 34 33 30 30
5 3 7 11 9 15 16 14 16 7 5 10 11 16 8 14 11 10 9 8 9 11 14 15 17 20 21 22 24 26 26 29 29 31 26 21 11 12 15 25 30 30 36 29
3 4 4 3 9 5 12 9 6 6 8 6 11 2 6 12 11 9 7 8 10 11 13 15 17 19 20 22 23 26 28 30 30 28 29 20 11 11 11 15 22 25 27 28
9 4 6 12 4 4 9 10 4 3 6 7 9 1 7 11 10 3 5 5 7 10 12 14 16 18 21 23 24 26 31 31 30 26 26 22 16 9 12 16 18 21 30 30
8 7 8 8 8 6 7 7 7 5 5 11 9 2 8 6 5 6 5 6 8 10 13 15 16 18 20 22 24 25 31 31 29 27 22 25 19 13 6 13 18 18 23 27
2 5 8 6 2 2 6 9 8 5 5 10 11 9 6 6 11 13 15 9 9 11 12 14 16 18 19 21 23 26 29 31 29 25 23 19 22 19 12 7 5 21 21 23
5 6 6 2 1 1 2 6 7 8 9 6 10 11 9 12 12 11 10 9 9 10 12 14 16 17 19 21 23 24 26 30 29 27 26 24 20 17 11 7 14 6 19 18
2 3 5 8 4 6 8 9 11 11 11 13 13 11 14 15 15 10 7 8 7 10 11 13 15 16 18 21 22 22 24 26 28 29 28 25 23 20 17 16 8 10 6 18
4 4 4 7 2 4 9 6 8 10 10 7 9 9 14 13 11 15 11 8 8 9 11 13 15 16 17 19 20 21 22 23 27 28 28 28 27 25 23 22 16 7 9 6
5 5 3 1 4 5 6 8 4 7 7 8 7 10 9 7 8 10 11 9 9 11 13 14 14 15 17 17 18 19 19 24 27 28 27 28 27 27 26 24 22 20 16 11
5 4 3 3 7 7 6 6 3 3 3 6 6 7 2 6 9 11 10 10 10 9 11 13 13 14 19 18 18 18 23 26 27 28 28 28 28 28 27 28 27 25 21 19
3 2 4 5 4 4 6 6 6 3 4 6 7 7 6 6 5 6 7 8 9 10 10 12 14 15 18 22 21 23 26 27 29 28 27 26 27 29 30 29 30 28 26 26
5 3 7 6 5 5 1 6 3 4 5 6 8 10 7 2 9 9 7 8 9 10 12 13 14 16 17 18 23 27 26 27 25 25 26 27 28 28 29 29 29 30 30 30
7 7 5 4 4 3 10 1 2 3 5 4 8 10 16 16 14 11 9 9 11 13 14 14 15 17 17 18 18 23 27 25 23 24 25 26 26 27 26 27 29 29 30 31
2 2 2 4 3 5 8 9 4 4 6 6 8 9 10 12 12 10 10 11 11 12 13 11 13 14 17 19 19 20 20 20 21 22 24 25 27 26 27 28 27 28 29 30
3 5 3 6 6 6 7 8 8 8 9 9 9 9 10 13 12 12 12 11 10 11 12 12 13 16 18 18 19 19 18 17 18 18 19 20 24 25 28 28 28 28 28 27
2 8 7 4 7 9 7 8 9 10 10 11 11 10 10 12 12 11 11 10 10 11 12 12 13 14 16 16 18 20 20 18 17 18 18 19 20 21 23 26 28 28 27 23
2 4 3 2 15 7 13 11 10 10 10 10 10 10 10 10 11 10 10 10 10 11 11 12 13 14 15 16 18 19 19 19 18 17 17 19 17 17 17 17 21 23 24 21
Wind_Direction
219 226 236 243 235 243 255 266 274 282 243 227 239 253 239 214 235 238 227 230 226 212 186 190 338 352 350 339 332 325 313 304 298 289 281 268 262 250 245 240 235 234 235 234
230 237 246 257 268 274 274 258 250 264 284 247 252 253 254 241 235 235 230 200 192 184 188 137 0 355 351 343 334 327 321 312 300 287 280 270 262 251 249 244 244 237 233 233
235 236 268 248 258 269 269 266 258 253 280 277 262 261 248 237 225 228 211 165 157 175 181 353 354 349 342 340 335 328 321 313 306 293 287 279 270 262 237 239 239 238 237 236
256 256 233 233 224 220 250 262 267 276 256 248 238 252 256 211 185 177 159 163 159 147 48 4 350 345 338 332 332 328 321 316 310 297 288 278 262 258 251 241 239 241 231 235
229 237 239 230 232 223 253 251 261 240 259 263 246 258 263 165 177 184 160 155 132 112 31 5 352 343 336 331 329 327 324 320 313 302 290 281 269 259 255 241 241 237 237 232
261 281 296 244 228 230 270 305 243 250 245 239 242 252 254 178 187 174 145 128 120 64 23 2 350 340 333 331 330 328 325 322 317 308 297 280 268 260 243 247 241 230 236 240
226 222 245 239 216 207 226 243 223 221 218 246 229 232 234 168 151 155 134 119 113 41 23 0 354 348 342 338 337 332 329 327 325 320 307 287 274 260 249 242 241 235 234 239
221 199 196 196 213 202 204 197 224 213 211 244 274 248 95 46 78 87 88 104 82 38 17 3 356 351 345 341 338 335 335 337 333 326 314 298 281 265 254 241 239 240 232 246
236 231 186 188 214 222 213 213 224 266 288 272 177 131 109 118 117 119 104 90 58 31 8 358 356 353 349 345 342 338 337 337 339 336 323 317 297 272 255 238 236 228 231 238
300 245 227 168 227 222 220 239 225 210 257 237 210 191 167 163 159 129 100 69 32 9 359 355 355 354 352 349 346 342 337 340 347 344 332 323 317 273 256 236 224 224 232 232
257 260 200 177 212 248 219 200 244 234 293 288 262 94 84 151 118 115 97 49 18 360 355 351 353 354 351 351 352 347 343 347 348 352 341 330 314 286 262 235 238 227 230 229
193 273 213 210 177 215 275 286 256 264 215 239 281 307 123 112 108 76 49 27 7 358 353 353 355 354 354 354 354 351 352 353 353 355 353 339 338 323 267 249 240 242 234 231
172 213 221 195 200 207 239 239 289 302 280 277 287 358 101 133 191 175 339 47 4 2 358 357 356 358 356 354 355 355 360 360 357 353 356 346 353 352 304 242 240 241 239 235
306 255 251 271 0 69 190 206 218 207 266 276 271 281 149 333 351 355 28 32 12 8 1 359 357 357 356 356 358 359 0 7 5 2 359 352 353 349 355 311 242 209 220 228
218 227 249 320 35 11 266 222 216 241 249 264 287 301 333 16 356 26 7 6 6 8 4 3 360 356 357 358 2 1 3 12 15 18 14 18 7 357 0 17 330 238 220 200
202 221 238 226 240 260 266 254 251 261 268 267 278 283 36 354 1 58 50 32 24 17 6 359 358 357 2 1 2 1 4 11 21 27 27 24 23 16 15 33 39 270 261 197
194 185 204 235 192 264 255 278 287 278 252 288 276 358 7 24 51 42 45 41 30 26 12 6 3 2 3 4 360 6 6 16 31 31 30 30 34 35 31 34 30 26 339 258
194 187 179 187 187 227 77 62 16 341 346 4 336 358 12 65 75 60 50 46 33 28 20 15 8 10 12 10 14 13 16 29 36 37 34 34 35 40 42 44 51 55 46 39
203 188 183 194 217 105 161 52 40 15 64 49 334 335 353 147 139 70 57 55 44 32 27 15 21 25 22 23 23 22 34 38 41 38 37 38 38 41 43 46 47 54 62 63
154 279 237 196 248 237 83 36 34 54 231 26 356 324 294 195 245 81 56 56 48 40 32 32 29 35 35 30 40 41 43 43 43 41 42 44 46 48 48 51 54 56 57 63
176 195 224 201 239 104 217 345 40 245 51 21 15 354 248 159 77 104 86 65 54 45 38 34 35 34 29 30 36 42 42 42 43 46 48 50 52 53 58 57 58 61 63 61
182 185 198 225 232 200 356 145 277 25 61 70 64 63 83 100 99 92 85 70 61 52 44 37 35 36 33 31 30 33 28 32 36 43 48 48 50 55 52 59 63 60 63 63
221 15 59 8 56 90 48 78 74 62 98 89 93 87 98 97 93 95 83 72 66 61 46 42 41 39 37 31 33 31 32 19 24 30 34 42 46 48 53 52 53 58 57 58
154 155 97 182 133 118 102 93 84 95 108 103 98 101 109 108 105 95 84 74 66 66 53 50 46 43 37 32 32 30 27 27 29 33 34 33 33 33 43 48 50 52 52 53
103 155 133 79 132 124 114 116 118 111 111 111 106 105 104 103 98 97 89 79 71 64 59 56 54 47 39 32 33 29 29 32 32 32 34 32 32 36 23 30 37 39 38 39
193 143 210 132 158 85 136 137 136 129 123 117 115 113 109 111 109 104 94 84 74 66 62 59 55 51 44 40 40 37 32 30 36 35 31 34 32 31 30 32 14 18 23 29
Height
1467 1468 1452 1451 1445 1445 1442 1440 1431 1416 1407 1417 1422 1418 1413 1419 1422 1423 1425 1429 1433 1440 1445 1449 1451 1450 1450 1449 1447 1445 1442 1441 1440 1439 1439 1440 1439 1440 1440 1441 1444 1445 1446 1445
1460 1461 1445 1446 1448 1450 1448 1439 1436 1430 1420 1419 1420 1415 1411 1410 1412 1416 1417 1421 1431 1441 1445 1448 1448 1448 1447 1446 1444 1442 1439 1436 1434 1434 1433 1432 1431 1431 1433 1433 1434 1438 1439 1439
1441 1440 1451 1451 1455 1467 1460 1452 1441 1447 1438 1421 1419 1413 1404 1399 1403 1408 1415 1420 1432 1440 1444 1446 1445 1445 1445 1443 1441 1438 1435 1431 1428 1427 1424 1423 1423 1421 1421 1424 1426 1429 1430 1432
1438 1437 1445 1452 1453 1458 1464 1452 1444 1445 1436 1427 1408 1412 1387 1382 1399 1409 1416 1426 1432 1440 1443 1443 1443 1442 1442 1441 1438 1434 1430 1426 1423 1421 1418 1416 1415 1414 1415 1417 1417 1419 1422 1424
1433 1443 1444 1439 1439 1450 1452 1450 1451 1445 1436 1419 1409 1406 1385 1383 1399 1408 1415 1423 1434 1441 1442 1442 1443 1441 1441 1438 1435 1430 1426 1421 1418 1414 1411 1407 1404 1405 1407 1405 1408 1409 1410 1413
1447 1450 1445 1435 1444 1454 1458 1456 1444 1434 1428 1426 1418 1405 1387 1388 1388 1401 1412 1423 1436 1439 1440 1442 1443 1442 1440 1437 1433 1427 1422 1416 1411 1406 1402 1399 1395 1394 1395 1398 1397 1398 1400 1402
1443 1440 1446 1444 1446 1449 1456 1460 1452 1444 1436 1420 1394 1399 1400 1388 1384 1394 1411 1426 1437 1438 1440 1443 1443 1440 1437 1433 1428 1422 1417 1410 1405 1399 1394 1391 1386 1384 1384 1386 1387 1391 1392 1393
1433 1431 1435 1437 1437 1437 1440 1448 1437 1431 1431 1419 1401 1409 1409 1403 1403 1415 1420 1430 1436 1438 1442 1443 1440 1437 1434 1429 1424 1418 1411 1403 1398 1393 1387 1381 1377 1375 1374 1374 1379 1383 1384 1385
1420 1413 1409 1416 1421 1424 1434 1429 1421 1418 1412 1408 1407 1404 1409 1414 1418 1419 1426 1432 1435 1438 1441 1441 1439 1436 1432 1427 1421 1415 1408 1401 1394 1386 1379 1373 1369 1367 1366 1367 1372 1375 1377 1379
1423 1420 1408 1410 1417 1416 1417 1416 1424 1424 1420 1405 1387 1393 1394 1415 1416 1419 1428 1433 1436 1438 1439 1438 1437 1433 1430 1426 1420 1414 1408 1399 1390 1383 1376 1369 1363 1361 1359 1363 1367 1369 1371 1374
1422 1417 1421 1417 1413 1415 1411 1419 1419 1420 1415 1409 1401 1402 1412 1412 1417 1424 1432 1434 1437 1440 1440 1440 1436 1433 1431 1426 1421 1413 1406 1396 1388 1380 1374 1367 1360 1357 1358 1359 1362 1363 1367 1369
1420 1420 1417 1412 1418 1419 1416 1408 1415 1425 1415 1420 1407 1410 1415 1417 1425 1431 1433 1437 1439 1441 1442 1439 1435 1434 1431 1427 1421 1415 1404 1395 1388 1380 1374 1368 1361 1357 1356 1355 1358 1359 1361 1363
1420 1421 1414 1415 1419 1416 1413 1411 1414 1415 1415 1412 1415 1413 1416 1424 1424 1425 1426 1433 1438 1441 1441 1439 1437 1435 1432 1428 1422 1415 1403 1396 1388 1381 1372 1370 1363 1359 1356 1355 1355 1357 1359 1360
1425 1414 1409 1412 1411 1405 1418 1416 1418 1422 1424 1413 1408 1404 1415 1417 1422 1426 1427 1435 1438 1442 1443 1441 1439 1437 1433 1429 1422 1414 1405 1398 1390 1382 1375 1367 1367 1362 1356 1354 1353 1352 1354 1356
1424 1421 1416 1416 1417 1416 1416 1415 1416 1418 1418 1421 1416 1417 1416 1425 1429 1432 1437 1440 1443 1446 1445 1444 1441 1438 1434 1429 1422 1416 1409 1402 1394 1384 1378 1371 1369 1365 1359 1353 1348 1353 1353 1351
1424 1418 1421 1417 1418 1419 1419 1416 1416 1416 1417 1417 1417 1419 1428 1432 1432 1438 1443 1445 1446 1447 1447 1446 1444 1440 1434 1429 1424 1420 1413 1406 1398 1389 1383 1380 1373 1366 1358 1355 1352 1350 1353 1346
1424 1425 1423 1414 1422 1422 1420 1416 1414 1413 1413 1416 1419 1425 1433 1438 1444 1447 1448 1450 1451 1450 1449 1446 1444 1440 1435 1431 1428 1422 1417 1410 1401 1395 1390 1384 1378 1371 1364 1359 1356 1348 1353 1351
1425 1425 1424 1416 1424 1423 1425 1429 1431 1430 1425 1430 1432 1435 1441 1448 1452 1453 1453 1454 1453 1451 1449 1447 1445 1442 1437 1434 1429 1425 1420 1412 1406 1400 1396 1391 1385 1379 1373 1368 1364 1361 1357 1357
1423 1421 1421 1423 1415 1414 1424 1434 1443 1443 1437 1446 1444 1445 1445 1450 1452 1456 1456 1455 1454 1453 1452 1450 1447 1444 1440 1435 1431 1428 1421 1415 1411 1406 1402 1397 1392 1387 1381 1375 1372 1367 1364 1363
1425 1424 1422 1418 1417 1415 1435 1438 1439 1444 1433 1448 1450 1449 1447 1448 1443 1455 1458 1457 1456 1455 1453 1452 1449 1446 1443 1439 1434 1429 1424 1421 1416 1412 1408 1404 1399 1394 1389 1385 1380 1377 1375 1373
1425 1426 1421 1417 1414 1434 1443 1440 1442 1440 1447 1452 1453 1451 1444 1447 1454 1459 1459 1459 1458 1456 1455 1453 1450 1448 1446 1443 1439 1434 1431 1427 1424 1420 1415 1410 1405 1402 1398 1395 1391 1388 1385 1381
1421 1419 1419 1411 1418 1424 1445 1441 1443 1453 1453 1454 1455 1454 1453 1454 1457 1459 1460 1460 1459 1458 1457 1456 1454 1451 1449 1446 1443 1440 1436 1433 1429 1426 1421 1417 1413 1409 1406 1402 1399 1397 1393 1390
1426 1431 1425 1435 1437 1449 1449 1451 1453 1453 1454 1456 1456 1457 1457 1458 1460 1461 1462 1461 1461 1461 1461 1460 1458 1455 1452 1449 1447 1444 1442 1440 1436 1431 1427 1423 1420 1417 1413 1409 1406 1401 1400 1398
1429 1432 1433 1437 1447 1449 1452 1453 1454 1455 1456 1458 1459 1459 1460 1460 1462 1463 1463 1464 1464 1463 1463 1462 1460 1458 1455 1454 1451 1449 1446 1444 1440 1436 1434 1431 1427 1423 1420 1417 1414 1411 1409 1407
1424 1430 1434 1444 1448 1450 1452 1454 1455 1457 1458 1459 1460 1462 1463 1464 1465 1466 1467 1467 1467 1466 1465 1464 1463 1462 1460 1457 1453 1451 1448 1446 1444 1442 1438 1436 1433 1430 1427 1424 1422 1419 1417 1416
1426 1432 1432 1428 1439 1442 1450 1454 1456 1458 1460 1461 1463 1465 1466 1467 1468 1468 1469 1469 1469 1467 1467 1466 1464 1463 1462 1459 1455 1453 1451 1450 1447 1445 1443 1440 1439 1437 1434 1432 1429 1427 1426 1423